Theta_e
352 353 353 353 353 353 353 352 350 350 349 351 353 353 353 353 352 352 353 353 352 350 348 345 342 338 332 330 328 328 329 329 328 328 329 328 327 328 328 329 329 327 327 326 326 327 326 328 332 335 339 340 340 341 342 341 343 346 348 351 353 351 348
352 352 353 353 353 352 353 353 352 351 350 351 352 353 353 353 353 353 353 354 353 352 349 346 344 340 333 330 328 328 328 329 329 328 328 328 327 327 327 328 328 327 326 326 326 327 327 327 329 331 335 338 339 339 341 342 343 343 344 346 349 348 347
351 352 353 353 354 353 353 352 352 353 352 352 352 353 354 354 354 354 354 355 354 353 351 349 346 342 337 332 329 327 326 327 328 328 327 327 327 327 327 327 327 326 326 327 327 327 328 328 330 329 330 335 338 338 339 341 342 344 343 343 344 345 344
351 351 352 352 354 354 354 353 352 352 352 352 353 353 354 355 354 354 355 355 355 354 353 351 348 345 342 337 332 328 327 327 326 327 326 326 327 326 327 326 326 325 326 326 327 329 330 331 332 331 330 332 336 338 338 339 340 342 342 342 343 343 343
350 350 351 353 355 355 355 355 354 354 353 352 353 354 354 355 355 355 355 355 355 355 355 353 350 348 345 341 336 331 329 327 326 326 326 326 325 325 326 325 325 325 325 327 327 329 331 333 334 334 332 330 333 337 338 339 339 341 341 341 342 342 342
350 350 352 353 356 356 356 356 356 355 354 354 354 355 355 356 355 355 355 355 355 355 355 355 353 350 347 344 339 334 331 329 328 327 326 326 325 325 325 325 325 326 325 326 328 329 332 336 337 336 334 331 330 333 337 339 339 340 340 340 340 341 342
350 351 353 354 355 356 356 356 356 356 355 355 355 356 356 356 355 355 355 355 355 356 356 356 354 353 350 347 343 339 335 332 331 329 327 327 327 326 326 326 326 326 327 327 328 330 334 337 338 338 337 335 332 331 334 338 339 340 340 339 339 339 340
351 351 354 354 355 355 356 357 357 356 355 355 355 356 356 356 356 355 355 355 356 356 357 356 356 354 352 350 347 343 339 336 333 332 329 328 328 327 327 327 327 327 327 328 329 331 335 338 338 339 340 339 336 332 333 335 337 339 339 338 338 338 339
351 352 353 354 355 355 355 356 356 356 355 355 355 356 356 357 356 355 355 356 357 356 357 357 356 356 354 352 350 347 343 340 337 334 333 331 330 330 330 329 329 329 329 330 330 332 336 339 339 338 340 341 339 335 333 334 335 337 338 338 337 337 338
351 352 352 353 354 353 354 354 354 355 355 355 356 357 357 356 355 355 355 357 357 357 357 357 357 357 356 355 353 350 348 345 341 337 336 334 334 332 333 333 332 332 332 332 334 334 337 340 340 339 340 340 339 337 334 333 335 336 336 336 336 336 336
349 351 352 352 352 352 353 354 355 355 355 357 357 357 356 356 355 355 356 356 357 358 358 358 358 358 358 357 356 355 353 350 346 342 338 336 336 335 335 335 335 335 335 335 336 337 338 341 342 341 341 340 338 335 334 333 333 336 336 335 335 336 335
349 351 351 350 350 351 354 356 356 356 357 357 357 356 356 356 355 355 355 355 356 357 358 359 360 360 360 359 359 358 356 353 350 345 341 338 337 337 337 338 338 338 338 338 339 340 341 342 343 343 342 340 337 335 333 332 332 334 335 335 335 336 336
350 352 351 352 352 351 353 355 355 355 355 355 355 356 355 355 355 355 355 356 356 356 357 358 359 360 361 362 361 359 358 355 352 348 343 339 338 338 338 339 339 339 340 339 341 343 344 343 344 345 343 340 338 336 334 333 332 332 333 334 334 335 335
349 349 351 352 354 354 355 354 354 354 353 353 354 354 354 354 355 355 356 356 356 357 357 358 359 360 361 363 363 361 359 357 354 350 346 342 340 339 339 340 340 341 341 341 342 344 345 344 345 346 345 342 339 337 336 336 335 333 333 333 334 333 334
345 347 348 349 352 354 354 355 357 356 355 355 356 355 355 355 356 356 356 357 357 357 357 358 359 360 362 364 363 363 361 358 356 353 351 346 343 341 340 340 342 343 344 344 344 344 345 346 347 348 346 344 341 340 340 340 339 337 334 334 334 333 333
342 344 345 346 347 348 347 349 353 356 358 358 357 357 358 358 358 359 358 358 358 358 358 358 359 360 362 363 364 363 362 361 358 355 353 350 346 343 342 342 343 345 346 347 346 346 347 349 349 349 348 345 344 343 343 343 342 340 337 335 335 334 334
339 340 341 342 343 342 340 341 346 350 355 358 357 357 356 356 358 358 358 359 358 358 358 358 359 360 361 364 364 364 364 362 360 358 355 353 349 346 344 344 345 346 347 348 349 349 349 350 352 351 349 347 345 345 345 344 343 342 340 337 336 336 336
337 337 338 339 340 339 337 339 341 343 347 352 356 358 356 355 356 357 358 359 357 357 357 357 358 359 360 363 365 365 364 363 361 359 357 355 352 348 346 345 346 347 349 350 350 351 351 352 353 352 351 349 348 347 346 345 343 341 340 338 337 336 337
334 335 335 336 337 337 337 338 340 341 344 347 350 354 356 356 356 356 357 357 357 355 355 356 357 358 359 362 364 365 365 364 363 361 359 356 354 351 349 348 348 349 350 350 351 352 353 352 353 353 352 352 350 348 347 346 344 343 340 339 337 338 338
332 332 332 333 333 335 338 339 341 342 342 343 347 352 356 356 356 356 356 355 356 354 354 354 356 357 359 360 363 365 365 365 363 361 359 358 356 353 352 350 349 349 350 351 352 353 353 353 352 354 354 353 352 351 349 347 346 344 342 340 338 338 339
330 330 330 330 331 334 336 338 340 341 336 336 344 350 353 356 357 355 355 355 354 355 355 355 354 356 357 359 362 365 365 365 364 362 360 358 357 355 353 352 351 351 352 353 354 353 353 353 353 353 354 354 354 354 352 350 348 346 344 342 340 339 340
328 328 328 329 330 332 335 336 339 342 340 340 343 346 351 355 357 356 355 355 354 353 354 355 355 355 356 357 361 364 365 364 363 362 361 359 358 357 355 354 352 352 353 354 355 354 354 354 354 353 352 353 354 354 354 353 351 348 347 344 342 342 343
325 326 327 328 330 332 334 336 339 343 345 345 344 344 347 352 354 356 356 355 355 354 353 354 355 355 356 358 360 363 365 364 363 362 361 359 358 357 357 355 354 353 354 355 355 355 355 354 355 354 353 353 353 354 354 355 353 351 349 346 345 345 347
324 324 325 326 329 332 334 336 339 342 345 346 345 344 346 348 351 355 356 357 357 355 354 354 354 355 357 358 360 363 364 364 363 363 362 360 359 358 357 356 354 353 354 355 356 355 355 355 355 355 354 353 352 352 353 354 354 352 352 349 347 348 348
323 323 324 325 328 330 333 336 338 340 343 345 345 344 344 347 351 356 357 358 358 357 356 354 353 354 356 357 358 362 364 364 363 363 362 361 359 358 358 357 355 354 353 354 355 355 356 355 355 355 355 353 353 352 352 353 354 354 353 352 351 351 350
322 322 323 325 327 329 332 335 338 340 342 344 345 343 343 345 351 356 358 358 358 358 357 355 353 352 354 357 358 361 363 364 363 362 362 361 360 359 359 357 356 355 354 354 355 355 356 355 355 355 355 354 354 352 351 352 353 353 354 354 353 352 352
321 321 323 324 327 329 331 334 337 339 342 344 345 345 345 347 351 356 358 358 359 359 358 357 355 352 352 355 358 360 362 363 363 363 362 361 360 360 359 358 357 357 356 355 355 356 356 356 355 355 355 354 354 354 352 351 351 352 353 354 354 353 353
322 321 323 324 326 328 330 333 336 338 340 342 344 346 348 349 350 352 355 357 359 361 360 359 358 356 353 353 354 357 362 364 363 363 362 362 361 361 360 359 358 358 358 356 356 356 356 355 355 355 356 355 355 354 353 351 350 350 350 351 352 352 352
321 321 323 325 326 328 329 331 334 337 339 341 344 347 350 351 351 349 351 354 358 360 362 361 360 358 355 353 352 356 362 364 363 363 363 363 362 361 361 360 360 359 359 358 356 356 356 355 355 356 356 356 356 355 355 353 352 351 349 348 348 348 349
319 319 321 324 326 327 329 331 333 335 338 340 344 347 350 352 355 356 355 356 358 360 362 362 361 359 357 355 354 354 359 364 364 364 365 364 363 362 362 362 360 360 360 359 358 357 356 356 356 356 357 358 358 358 356 354 354 352 349 348 348 347 346
318 318 320 323 325 327 329 330 332 335 337 341 344 348 349 351 356 360 360 359 360 362 362 362 362 360 356 355 355 353 357 362 364 365 365 364 364 364 363 362 362 361 361 360 359 358 357 357 356 357 358 359 359 358 357 356 355 353 351 350 350 350 348
318 317 319 321 324 326 328 330 332 334 337 340 343 346 348 350 355 359 361 360 361 363 361 360 361 359 354 355 356 354 355 361 363 365 365 365 366 365 364 363 364 363 363 362 361 360 358 357 356 357 358 359 359 359 358 358 356 355 354 352 352 352 350
319 317 318 320 322 324 327 330 332 334 336 339 342 345 347 349 353 358 360 360 361 361 360 360 361 357 352 353 357 357 357 361 363 364 365 366 366 366 366 366 365 364 364 364 363 361 360 359 358 357 358 358 359 359 359 358 357 357 356 356 355 354 352
319 318 318 320 322 324 327 330 332 333 336 339 342 345 347 348 352 357 360 360 360 362 363 362 361 356 351 352 357 359 359 361 363 365 365 366 367 367 367 367 367 366 365 364 364 363 362 361 360 359 358 357 357 358 358 358 358 357 355 355 354 353 353
319 318 318 319 321 324 327 330 332 334 336 340 342 345 347 349 351 354 358 359 360 363 366 366 361 357 355 355 358 361 361 362 364 364 366 366 367 368 368 368 367 367 366 366 366 366 364 363 362 359 358 357 355 356 357 358 357 353 350 348 347 347 349
319 318 318 319 321 323 327 329 330 333 336 339 341 344 346 349 352 355 358 359 359 362 367 368 365 360 358 360 362 362 362 363 363 365 367 366 367 367 368 368 368 367 366 366 367 367 366 365 364 361 360 358 355 353 353 352 350 347 345 346 346 346 347
319 318 318 319 320 323 326 328 329 331 334 336 338 341 345 351 354 356 357 358 359 361 364 368 369 365 361 362 363 362 363 364 364 365 366 367 367 368 368 369 368 368 368 367 368 368 367 367 366 363 361 359 356 352 350 349 347 347 346 346 346 348 350
318 318 318 319 320 321 323 325 327 328 330 332 334 337 343 349 353 355 356 357 359 361 364 367 370 369 366 365 365 366 366 366 366 367 367 367 368 368 368 369 369 368 368 368 368 368 368 367 367 365 362 360 357 354 352 350 349 350 349 347 346 349 351
Wind_Speed
44 43 41 41 43 43 43 44 44 45 46 45 45 45 44 44 45 45 46 47 48 48 48 48 47 45 43 42 41 41 40 39 39 38 37 35 32 30 28 27 26 25 24 21 18 15 13 12 13 13 14 14 13 14 14 13 13 15 15 15 14 11 10
41 43 42 41 43 43 44 46 45 44 46 46 47 47 46 45 46 47 47 48 48 48 49 49 49 48 46 43 42 41 41 40 40 39 38 37 34 32 30 28 27 27 25 23 20 18 15 14 14 13 14 15 15 14 14 14 14 15 14 15 15 13 10
42 43 43 44 45 45 45 47 47 47 46 46 47 49 49 47 47 47 48 49 48 48 49 50 50 49 47 45 44 42 42 42 41 41 40 39 37 35 33 31 29 28 26 25 23 20 18 17 16 15 14 15 16 16 15 15 15 15 14 14 15 14 12
43 44 45 46 46 47 46 47 49 49 49 47 47 49 51 49 48 48 48 48 48 48 49 50 50 50 49 48 46 44 43 43 42 41 40 39 38 36 35 33 31 30 28 26 24 22 20 19 18 18 17 16 16 17 16 16 16 15 15 15 15 15 13
42 42 42 43 44 45 45 47 49 50 50 49 48 49 51 50 49 48 48 48 48 48 48 48 49 50 49 49 48 46 45 43 42 42 41 40 38 38 37 35 33 31 30 28 26 24 22 21 20 20 20 18 17 18 18 17 17 16 16 15 16 16 15
37 38 39 41 43 45 46 47 49 50 50 50 49 49 50 51 50 49 48 47 48 48 47 47 48 49 50 50 50 48 47 45 44 43 42 41 40 39 38 36 35 33 32 30 28 26 24 23 22 22 22 21 20 19 19 18 18 17 17 16 16 16 16
39 39 41 42 43 44 46 47 48 49 50 50 49 48 48 50 50 49 48 48 48 48 48 48 48 48 49 50 50 50 49 47 46 45 44 42 41 41 40 38 37 35 34 32 30 28 26 25 24 24 23 22 22 22 21 21 20 19 18 17 17 16 16
44 42 42 42 45 46 45 47 47 47 48 48 48 48 48 50 51 49 47 47 47 48 48 49 49 48 48 48 50 50 50 49 47 46 45 44 44 43 41 41 39 38 36 35 33 31 29 27 26 25 25 24 23 23 23 23 22 21 20 19 18 18 17
47 46 47 45 45 47 47 48 48 47 47 47 47 48 49 49 51 51 49 47 47 48 49 49 49 48 47 47 48 50 50 50 48 47 47 46 45 45 43 42 41 40 38 37 35 33 31 30 29 28 27 26 25 24 24 25 24 23 23 21 20 19 18
45 45 47 48 47 46 47 46 46 45 46 48 47 48 50 51 51 52 50 48 47 48 49 49 48 49 47 46 47 49 50 50 49 49 48 47 47 46 45 43 42 41 39 38 36 35 33 31 31 31 30 29 28 26 25 26 26 25 25 24 22 21 20
42 49 47 48 45 41 43 43 43 45 46 47 47 47 49 51 52 53 53 51 50 48 48 48 48 47 47 47 47 48 49 51 51 50 49 48 47 46 45 44 43 42 40 39 38 36 34 33 33 33 33 32 31 29 27 26 26 26 26 25 24 23 21
19 31 36 46 49 44 43 43 43 46 47 48 48 47 49 50 51 52 53 54 53 51 49 49 48 46 45 45 45 47 50 51 52 52 51 50 48 47 46 44 43 42 41 40 39 38 36 35 34 35 35 34 33 31 29 28 28 27 26 25 25 24 24
31 23 13 17 31 39 42 44 46 47 46 47 46 45 47 48 50 51 52 54 55 54 52 50 47 45 44 44 43 45 49 51 53 53 52 51 49 47 46 45 44 43 42 41 40 39 38 37 36 36 36 35 34 32 31 30 30 29 28 26 26 25 25
38 38 34 30 22 14 12 20 33 43 45 46 46 46 46 47 49 49 51 53 53 53 52 50 48 46 44 44 43 44 47 50 53 53 53 51 50 48 47 46 45 44 43 42 41 41 40 38 37 37 36 36 35 34 33 32 32 31 30 29 28 26 26
34 35 36 39 36 29 25 19 5 17 32 37 37 41 44 44 46 47 48 50 50 50 50 48 47 47 46 45 45 45 46 49 51 52 52 51 50 49 49 47 46 45 43 42 42 41 41 40 39 38 38 37 36 35 34 34 33 33 32 31 30 28 27
30 32 33 33 32 30 28 28 26 13 7 20 25 27 28 30 35 38 38 40 42 44 45 46 47 47 47 48 49 47 45 46 49 51 51 51 51 50 49 48 46 45 44 43 42 41 42 42 41 40 39 38 37 37 36 35 35 34 33 31 30 29 28
29 30 31 30 28 27 25 24 25 24 15 2 15 22 23 23 27 33 35 34 33 33 34 38 44 47 48 47 48 47 45 45 48 50 50 51 51 50 50 49 47 46 45 44 43 41 41 42 42 42 40 39 38 37 37 37 36 35 34 32 31 30 30
29 29 30 30 28 25 23 21 18 17 20 14 2 11 20 23 24 31 37 39 37 33 28 27 32 40 46 47 46 46 45 45 46 48 50 51 51 51 50 49 48 47 46 45 44 42 41 42 44 43 41 40 39 38 38 38 37 36 34 32 31 30 30
28 28 28 28 29 25 21 21 18 15 16 16 14 7 6 16 20 25 31 33 35 36 34 30 28 29 35 41 45 46 46 45 46 48 49 50 51 51 50 49 49 48 48 47 45 43 41 42 44 43 42 41 40 39 38 38 37 36 35 33 31 30 30
26 28 28 27 27 26 22 20 18 17 15 14 13 12 6 4 13 19 23 24 27 32 36 38 36 33 31 34 41 45 46 46 46 47 49 49 50 50 50 50 50 49 49 47 46 44 43 42 43 44 42 41 40 39 38 37 37 36 35 33 32 31 30
26 28 29 29 29 28 25 22 20 17 13 11 9 4 3 5 7 11 14 16 22 28 32 36 40 41 40 39 41 45 48 48 47 47 48 49 49 50 50 51 51 50 49 48 47 46 45 43 43 44 43 42 41 40 39 38 37 35 34 33 31 30 30
26 27 28 30 30 28 26 23 22 19 14 12 11 4 4 5 5 6 10 14 19 24 28 32 36 41 45 45 45 47 50 50 48 48 48 49 49 50 51 51 51 51 50 48 48 47 46 45 44 44 44 43 42 41 40 39 38 35 33 31 29 29 29
25 26 28 31 30 29 28 25 22 20 16 16 13 7 7 8 6 6 9 13 17 21 26 32 36 40 44 45 44 48 52 51 49 49 48 49 50 50 51 51 51 51 50 49 48 48 47 47 46 45 44 44 44 43 42 40 39 37 34 31 29 29 29
26 27 30 32 32 31 30 27 24 21 18 17 15 10 9 10 9 9 11 14 17 21 27 33 35 38 44 45 43 46 52 53 50 49 49 49 50 50 50 51 51 51 51 50 49 48 48 47 46 46 45 45 45 45 44 42 41 39 36 33 31 30 30
28 29 30 31 32 32 31 29 27 23 20 20 18 14 11 11 11 12 13 15 18 21 26 32 36 37 42 45 43 44 50 53 51 50 49 49 50 50 50 50 51 51 51 50 49 48 47 46 46 46 46 45 45 45 45 44 42 40 38 36 33 32 31
27 29 30 31 32 32 31 30 28 25 23 22 21 18 16 14 15 15 15 16 19 23 26 30 35 36 38 42 42 42 47 52 52 51 50 49 49 49 50 50 50 50 51 51 49 47 46 45 46 46 46 46 45 45 46 46 44 42 40 38 36 34 33
25 26 28 31 31 32 32 30 29 27 25 24 23 22 20 18 18 18 18 18 22 25 28 30 34 37 38 41 42 42 45 50 52 52 51 49 48 48 49 49 49 50 50 51 50 48 47 45 45 45 46 45 45 45 45 46 46 45 43 40 38 37 35
27 26 27 29 30 31 31 31 30 30 28 26 24 23 21 20 22 22 22 24 25 25 28 30 32 36 38 41 42 41 43 49 52 51 50 49 48 48 49 49 49 49 49 50 50 49 48 46 45 45 45 45 45 45 45 45 45 45 45 43 42 39 38
26 26 27 29 30 30 31 32 31 31 31 28 25 23 20 20 23 25 26 28 28 26 26 28 31 34 37 40 42 41 43 47 50 50 50 49 49 48 48 48 49 48 48 50 50 50 49 48 46 45 44 44 44 45 44 44 43 43 43 43 43 42 41
26 25 25 27 28 29 30 31 32 33 33 30 26 23 21 20 21 23 24 26 28 28 27 27 29 33 37 41 45 46 45 46 48 48 49 49 48 48 48 48 49 49 48 49 50 50 50 50 48 47 45 44 44 43 43 43 42 41 39 39 39 40 41
25 24 25 25 27 28 28 30 32 33 34 33 28 24 22 21 22 23 23 24 27 30 31 30 29 32 37 41 46 49 47 46 47 48 48 48 48 48 49 48 49 49 48 49 50 51 51 51 50 49 47 45 44 43 42 41 40 39 37 35 35 35 36
25 24 24 25 26 28 28 29 31 32 34 34 30 26 24 23 23 25 25 26 28 31 32 31 30 33 38 41 46 50 49 47 48 48 48 48 47 48 49 49 49 49 49 48 50 51 52 52 52 50 48 46 45 43 42 40 38 38 36 34 33 33 32
27 26 24 24 27 29 29 29 30 32 34 35 33 28 26 25 24 25 27 28 28 29 30 30 29 32 38 41 45 51 51 50 51 50 48 48 47 47 48 48 48 49 49 49 51 52 52 52 52 51 50 48 45 44 42 40 39 38 36 34 33 33 32
27 27 24 23 26 28 28 28 29 31 32 34 32 29 28 27 25 24 26 27 26 27 28 29 29 32 37 40 45 51 52 52 52 50 48 47 47 46 47 47 48 49 51 52 53 53 54 53 53 53 52 50 47 44 42 41 41 39 38 36 36 35 34
27 26 23 23 25 27 27 27 28 29 29 28 27 27 28 28 26 24 25 26 25 25 26 27 29 32 35 40 46 51 53 52 51 51 49 48 47 46 46 46 47 48 50 51 52 52 53 53 53 53 53 52 50 48 45 43 43 43 41 39 37 36 34
28 26 22 21 24 25 26 26 27 27 25 22 22 24 26 27 25 23 24 26 26 26 25 24 28 33 36 41 47 51 52 52 51 49 48 47 46 46 46 45 46 47 48 47 48 49 50 50 50 51 51 51 52 51 49 47 45 44 43 41 39 37 35
28 26 23 21 22 24 25 25 26 26 25 24 24 24 22 22 22 22 23 26 27 28 25 21 25 35 39 43 48 50 50 51 50 49 48 47 46 45 46 45 45 46 48 47 46 46 48 47 47 48 49 50 50 50 50 48 46 45 43 42 40 39 37
26 25 23 22 21 22 25 26 27 29 30 28 26 25 19 16 17 19 23 26 28 30 27 20 22 32 38 40 44 46 45 45 44 41 40 41 41 42 44 46 47 47 47 48 47 46 45 45 46 46 47 48 48 48 48 47 46 46 44 42 41 40 38
Wind_Direction
188 191 195 196 196 195 195 195 197 198 198 197 196 196 198 200 200 201 203 205 206 207 206 206 208 210 210 210 210 211 212 213 212 212 213 216 218 216 214 212 213 217 220 224 225 223 223 218 213 210 207 209 208 202 202 198 192 191 188 191 203 209 202
188 191 195 196 197 198 198 197 196 195 196 197 198 197 198 199 200 201 204 206 207 208 208 207 208 210 212 212 213 213 213 215 215 216 216 218 221 222 222 220 219 220 221 224 227 227 229 228 225 218 209 209 212 208 207 204 197 198 199 196 202 210 210
189 192 193 195 196 197 197 197 197 197 195 195 197 199 199 200 201 203 205 206 207 208 209 208 209 210 212 212 214 215 215 216 216 217 218 219 221 224 226 226 226 225 225 225 226 226 228 229 229 227 218 211 212 212 211 209 204 202 203 201 204 210 212
191 193 194 194 194 195 196 196 198 199 198 198 199 200 200 201 202 203 206 207 207 208 209 209 210 210 211 212 214 216 217 217 218 219 220 221 222 223 225 227 228 228 228 228 228 227 227 228 228 229 226 216 212 213 213 212 210 208 205 203 205 208 209
193 192 191 192 192 193 194 195 197 198 199 199 201 202 202 202 202 203 206 208 208 209 210 211 210 210 212 213 215 217 218 219 219 219 220 221 222 223 224 226 228 228 229 230 231 230 228 226 224 225 227 222 214 212 214 214 213 213 212 208 207 208 207
192 191 189 191 191 193 194 196 198 199 198 198 200 202 202 202 203 203 206 209 210 211 211 211 211 211 213 214 215 217 218 219 220 220 221 221 221 222 223 225 227 229 230 230 232 232 229 226 224 223 225 224 219 214 214 215 214 213 216 215 212 212 210
191 190 191 192 192 193 195 197 199 200 200 199 200 202 202 202 203 203 206 209 210 210 210 210 211 212 214 215 216 216 218 219 220 221 222 222 222 223 223 225 227 229 231 232 231 231 228 227 226 225 226 225 222 218 214 216 217 214 214 217 216 215 214
190 189 190 192 193 193 194 196 199 200 200 199 200 202 203 204 204 203 205 208 210 210 210 211 212 212 215 216 216 217 218 219 220 221 222 222 223 224 225 225 227 229 231 231 231 230 226 226 227 228 228 227 225 221 217 217 219 218 215 216 218 217 217
188 187 190 192 192 194 195 196 197 198 198 198 200 202 203 203 203 203 203 206 209 210 211 212 213 213 215 217 218 218 218 219 219 220 221 222 223 224 225 226 227 229 230 230 230 229 225 223 225 227 228 229 229 226 220 218 220 222 220 219 220 221 221
188 184 189 193 194 196 197 197 196 196 198 199 200 202 203 203 203 202 202 204 207 210 212 213 214 214 214 216 219 219 218 218 218 219 220 221 222 224 225 225 226 227 228 228 228 228 226 222 222 225 227 229 230 229 223 219 220 223 224 223 224 224 223
188 187 187 191 193 195 197 196 195 195 197 200 201 202 204 204 204 204 204 205 206 209 211 211 212 213 215 217 218 218 218 218 218 218 219 220 222 223 223 224 225 225 226 226 226 226 225 221 219 222 225 227 230 230 225 221 221 222 223 224 224 225 225
157 181 185 189 190 192 194 194 194 195 197 200 201 203 205 206 207 207 208 209 209 210 211 211 212 212 214 216 217 217 218 218 218 218 219 220 221 221 221 221 222 222 223 224 223 224 224 222 219 220 223 226 230 232 229 225 225 224 224 224 224 224 225
59 69 95 167 181 188 193 193 194 195 198 201 202 204 206 209 210 210 210 211 212 212 213 213 213 213 214 215 216 216 217 218 218 218 218 219 220 220 219 219 220 221 222 223 222 221 221 221 220 220 222 225 228 231 232 229 228 227 227 227 226 225 224
50 54 51 50 68 109 153 183 195 198 199 202 204 206 208 211 212 212 212 212 212 213 214 215 214 213 214 214 216 217 218 218 219 218 218 218 219 219 218 218 219 220 222 222 222 220 219 221 221 221 222 225 227 230 231 230 229 228 228 229 229 230 229
41 47 46 44 47 48 45 46 86 198 203 203 202 204 207 210 212 212 212 213 213 214 215 215 215 214 213 214 216 219 218 218 218 217 217 217 217 217 218 218 218 219 220 222 222 221 219 220 222 222 221 224 226 228 230 229 229 228 229 230 230 232 233
31 39 43 43 40 34 30 32 35 35 208 205 201 201 202 205 208 208 209 212 214 215 217 217 217 216 215 215 217 219 218 217 217 217 216 216 217 217 217 218 217 217 219 221 222 221 219 218 220 221 222 223 225 226 228 228 229 230 230 232 233 234 235
24 28 34 35 33 29 24 25 29 22 7 256 198 200 199 199 203 205 207 210 212 216 219 219 219 219 218 217 218 218 218 217 216 217 216 216 216 217 216 217 217 216 218 220 222 221 219 217 218 220 221 223 225 225 226 228 229 230 231 233 235 235 236
20 19 23 24 22 21 16 17 21 7 356 5 49 204 204 201 203 207 210 212 214 217 223 228 228 226 223 221 219 219 218 218 217 217 216 216 216 216 216 216 216 216 216 218 221 221 218 215 216 219 221 222 225 226 226 228 230 231 232 233 235 236 238
15 12 14 16 16 11 2 0 7 2 350 358 13 17 199 201 206 208 210 215 217 218 222 231 241 241 232 224 221 220 220 219 218 218 217 217 217 216 216 215 214 215 215 217 219 220 219 215 215 217 220 222 224 226 227 228 230 231 232 233 234 236 237
11 6 4 6 6 3 358 352 352 355 357 357 5 24 50 213 224 218 217 224 228 226 224 226 233 240 240 230 222 222 222 221 220 219 218 218 217 216 215 214 214 215 215 216 217 218 218 216 214 215 219 222 224 227 228 230 230 231 233 234 234 234 235
8 1 358 357 355 354 356 352 343 343 353 352 346 7 36 334 288 247 238 236 235 233 229 226 227 229 231 228 222 221 223 223 221 220 219 218 217 216 216 215 215 215 214 214 215 217 219 218 215 215 217 221 224 227 229 231 232 233 233 234 234 234 234
4 358 352 350 349 348 348 343 336 333 329 324 322 286 245 295 301 268 262 249 237 234 232 231 230 226 224 224 221 219 221 222 222 221 220 218 217 217 216 216 215 214 214 213 214 216 218 219 218 216 216 219 222 226 229 231 233 234 234 235 235 234 233
356 353 347 344 343 342 340 334 330 328 319 312 313 298 281 295 293 272 270 260 250 243 235 234 234 227 222 222 220 218 219 220 221 221 220 218 218 218 218 217 216 215 214 213 213 215 217 218 219 218 218 218 220 224 228 230 233 235 235 235 235 234 233
347 348 345 342 339 336 333 331 328 325 319 312 308 300 292 292 288 281 271 265 266 256 238 232 232 229 224 221 220 220 220 219 220 221 220 219 219 219 219 218 217 216 214 213 213 215 217 218 219 219 220 219 220 222 225 228 232 234 235 235 235 233 234
337 340 342 342 340 335 332 329 325 320 314 308 304 299 290 279 281 285 275 267 272 265 246 235 235 234 228 223 223 224 221 219 219 220 221 221 221 220 220 219 218 217 215 214 214 215 217 218 218 219 220 221 221 222 224 226 229 232 234 235 234 234 234
334 335 337 339 337 333 330 326 323 319 312 306 302 300 293 281 277 280 278 277 278 271 257 246 242 242 236 228 227 228 224 219 219 220 221 222 222 221 220 220 219 217 216 215 215 215 216 218 219 220 221 221 222 223 224 225 227 229 231 232 233 233 234
336 334 335 336 335 331 326 322 319 316 310 304 301 298 293 285 278 274 272 279 282 273 263 256 250 245 240 232 229 231 228 223 220 219 220 222 223 221 220 220 219 218 217 216 215 215 215 217 219 221 221 222 223 224 225 226 227 228 229 230 232 233 232
333 334 334 334 334 332 327 320 315 311 306 301 298 296 293 284 276 271 269 274 276 268 264 263 257 248 241 233 231 233 231 225 221 219 219 220 221 220 220 219 219 218 217 216 216 215 215 216 218 220 222 222 223 225 227 229 229 229 229 230 231 232 232
330 337 337 334 334 334 330 323 316 309 305 302 299 295 293 285 274 270 272 272 268 262 264 267 260 251 245 236 232 233 232 225 221 220 219 218 218 219 219 219 218 218 218 217 216 215 215 215 217 219 221 222 223 225 227 230 231 231 231 231 231 233 234
327 339 342 338 336 334 331 326 318 308 302 300 298 293 288 283 279 277 276 271 266 265 270 272 263 253 248 240 233 232 231 227 223 221 219 218 217 218 218 218 218 217 218 217 216 215 215 215 216 218 220 221 222 224 226 228 231 233 233 232 231 232 234
322 334 341 339 337 335 331 326 320 311 302 297 295 292 284 279 280 281 275 267 268 272 274 274 267 253 246 241 234 230 229 227 224 222 220 218 216 217 217 217 217 217 217 217 216 216 216 216 215 216 218 220 221 223 224 227 229 232 233 233 232 232 233
317 326 334 338 338 337 334 327 321 315 305 296 292 289 283 275 273 275 271 266 269 271 270 272 267 251 242 239 234 229 226 224 222 221 220 218 217 217 218 217 216 217 217 217 217 217 217 216 216 216 217 219 221 222 223 225 226 230 232 233 233 233 233
311 317 326 337 341 341 338 332 326 320 309 300 297 294 287 277 268 267 269 269 271 272 271 271 264 247 238 238 233 227 222 220 218 218 217 216 216 217 218 218 218 217 217 217 217 218 217 217 216 216 216 217 219 221 222 223 225 228 230 231 232 233 234
310 313 320 335 343 344 343 339 334 328 316 306 303 300 293 284 273 268 272 273 274 276 275 271 260 245 238 237 231 223 218 216 216 216 215 214 216 217 217 218 218 218 220 220 219 218 218 217 217 217 217 217 217 219 221 223 224 227 229 230 232 233 232
309 310 316 334 345 346 347 347 344 338 328 317 311 306 298 289 280 274 277 279 277 279 278 269 257 248 242 236 228 221 216 215 215 215 214 214 215 217 218 219 220 220 222 224 222 221 220 219 218 219 219 218 218 218 218 219 224 229 233 235 236 236 234
308 307 311 331 346 348 350 354 351 344 338 335 330 320 307 295 284 280 282 281 276 277 279 268 253 248 242 232 223 217 215 214 214 213 213 213 214 215 218 220 222 223 224 225 225 224 224 222 221 221 221 220 221 221 221 223 228 232 235 238 239 240 240
305 305 308 325 344 351 354 358 355 347 346 348 344 332 314 295 285 283 282 279 274 273 275 265 247 241 236 227 221 217 214 213 213 213 213 213 214 215 216 219 222 224 225 226 225 224 224 224 224 225 224 223 224 225 226 228 231 232 234 238 240 240 241
301 301 304 317 337 350 357 1 360 354 350 349 345 340 326 297 283 281 277 274 271 267 266 259 239 231 227 220 216 214 211 209 208 208 209 211 213 214 217 220 222 223 224 225 225 224 224 224 224 226 226 227 227 228 228 229 230 231 234 238 240 240 241